This is the latest recevied weather packets stored in our database for station/object lu6fg. If no packets are shown the sender has not sent any weather packets the latest 10 day(s).
| Time | Temp. | Humidity | Pressure | Rain* | Wind** | Luminosity | Snow |
|---|---|---|---|---|---|---|---|
| 1777559044 | 20° C | 69% | 1014.8 hPa | 0 mm | - | - | - |
| 1777558985 | 20° C | 69% | 1014.9 hPa | 0 mm | - | - | - |
| 1777558144 | 19.44° C | 70% | 1015 hPa | 0 mm | - | - | - |
| 1777558024 | 18.89° C | 71% | 1014.8 hPa | 0 mm | - | - | - |
| 1777557964 | 18.89° C | 71% | 1015 hPa | 0 mm | - | - | - |
| 1777557664 | 18.89° C | 72% | 1015.1 hPa | 0 mm | - | - | - |
| 1777557545 | 18.33° C | 72% | 1014.9 hPa | 0 mm | - | - | - |
| 1777556884 | 18.33° C | 72% | 1014.6 hPa | 0 mm | - | - | - |
| 1777556824 | 18.33° C | 73% | 1014.6 hPa | 0 mm | - | - | - |
| 1777554244 | 16.11° C | 73% | 1014.8 hPa | 0 mm | - | - | - |
| 1777553965 | 16.67° C | 72% | 1014.8 hPa | 0 mm | - | - | - |
| 1777553764 | 16.11° C | 72% | 1014.9 hPa | 0 mm | - | - | - |
| 1777553644 | 16.11° C | 72% | 1014.7 hPa | 0 mm | - | - | - |
| 1777553404 | 16.11° C | 72% | 1014.5 hPa | 0 mm | - | - | - |
| 1777553365 | 16.11° C | 72% | 1014.7 hPa | 0 mm | - | - | - |
| 1777553284 | 16.11° C | 72% | 1014.6 hPa | 0 mm | - | - | - |
| 1777552924 | 16.11° C | 72% | 1014.7 hPa | 0 mm | - | - | - |
| 1777552864 | 16.11° C | 73% | 1014.6 hPa | 0 mm | - | - | - |
| 1777552804 | 16.11° C | 73% | 1014.6 hPa | 0 mm | - | - | - |
| 1777552324 | 15.56° C | 76% | 1014.5 hPa | 0 mm | - | - | - |
| 1777551746 | 15° C | 78% | 1014.5 hPa | 0 mm | - | - | - |
| 1777551566 | 15° C | 79% | 1014.5 hPa | 0 mm | - | - | - |
| 1777551205 | 15° C | 81% | 1014.4 hPa | 0 mm | - | - | - |
| 1777550524 | 14.44° C | 84% | 1014.4 hPa | 0 mm | - | - | - |
| 1777550405 | 14.44° C | 85% | 1014.4 hPa | 0 mm | - | - | - |
* Rain latest hour (hover to see other rain measurements)
** Current wind speed in m/s (hover to see current wind gust speed)